Regional Weather Roundup
Issued by NWS

Home | Current Version | Previous Version | Graphics & Text | Print | Product List | Glossary On
Versions: 1 2 3 4 5 6 7 8 9 10 11 12 13 14 15 16 17 18 19 20 21 22 23 24 25 26 27 28 29 30 31 32 33 34 35 36 37 38 39 40 41 42 43 44 45 46 47 48 49 50
000
ASUS45 KBOU 140607
RWRCO

WEATHER ROUNDUP FOR COLORADO
NATIONAL WEATHER SERVICE DENVER/BOULDER CO
1200 AM MDT SUN SEP 14 2014

NOTE: "FAIR" INDICATES FEW OR NO CLOUDS BELOW 12000 FEET WITH NO
SIGNIFICANT WEATHER AND/OR OBSTRUCTIONS TO VISIBILITY.

COZ001>005-013-030-031-140700-
...NORTHWEST COLORADO...

CITY           SKY/WX    TMP DP  RH WIND       PRES   REMARKS
CRAIG          MOCLDY    49  39  68 CALM      30.18R
HAYDEN         MOCLDY    55  30  38 E9        30.19R
MEEKER         PTCLDY    48  37  65 NE5       30.20R
MOUNT WERNER   NOT AVBL
STEAMBOAT SPGS MOCLDY    53  33  47 NW5       30.22S
WALDEN         PTCLDY    36  28  75 SE5       30.27F
$$

COZ006>008-011-140700-
...WEST CENTRAL VALLEYS...

CITY           SKY/WX    TMP DP  RH WIND       PRES   REMARKS
GRAND JUNCTION CLEAR     57  38  48 SE9       30.09R
MONTROSE       CLEAR     59  36  42 SE13      30.19R
EAGLE          CLEAR     48  36  61 CALM      30.26R
RIFLE          CLEAR     56  33  42 E6        30.16S
DELTA          CLEAR     61  36  38 E6        30.15S
NUCLA          CLEAR     59  34  38 SE9       30.22S
$$

COZ017>023-064>068-140700-
...SOUTHWEST COLORADO...

CITY           SKY/WX    TMP DP  RH WIND       PRES   REMARKS
DURANGO        CLEAR     52  33  48 E3        30.26R
CORTEZ         CLEAR     52  39  61 CALM      30.20R
PAGOSA SPRINGS NOT AVBL
TELLURIDE      CLEAR     48  32  53 SE6       30.41S
WOLF CREEK PAS CLEAR     41  27  56 SW12      30.59S
$$

COZ009-010-012-014-032>034-037-058>063-140700-
...CENTRAL COLORADO...

CITY           SKY/WX    TMP DP  RH WIND       PRES   REMARKS
ASPEN          CLEAR     47  30  51 SW8       30.31S
BUENA VISTA    CLEAR     44  27  51 CALM      30.33S
COPPER MTN     CLEAR     46  18  31 SW13G20   30.56S
BERTHOUD PASS  FAIR      37  36  93 W21G29    30.57F
COTTONWOOD PAS MOCLDY    54  21  28 W6        30.44S
GUNNISON       CLEAR     45  30  57 CALM      30.35R
KREMMLING      PTCLDY    43  30  61 CALM      30.29R
LEADVILLE      CLEAR     38  21  50 NE7       30.43S
MONARCH PASS   CLEAR     43  21  42 SW15      30.67S
SALIDA         CLEAR     56  29  35 SW6       30.38S
SUNLIGHT       CLEAR     46  25  42 CALM      30.50S
WILKERSON PASS NOT AVBL
$$

COZ069>075-140700-
...SAN LUIS VALLEY/SANGRE DE CRISTO MOUNTAINS...

CITY           SKY/WX    TMP DP  RH WIND       PRES   REMARKS
ALAMOSA        CLOUDY    49  39  68 E3        30.30R
LA VETA PASS   NOT AVBL
SAGUACHE       NOT AVBL
$$

COZ035-036-038>040-140700-
...NORTHERN COLORADO FRONT RANGE...

CITY           SKY/WX    TMP DP  RH WIND       PRES   REMARKS
DENVER INTL AP CLEAR     53  42  66 SW13      30.16S
DMNS CITY PARK NOT AVBL
AURORA         CLEAR     50  42  72 S10       30.19F
FRONT RANGE AP CLEAR     55  43  62 SW13      30.18S
ERIE MUNI ARPT CLEAR     49  43  78 CALM      30.15S
BOULDER MUN AP CLEAR     54  41  62 CALM      30.15F
CENTENNIAL     CLEAR     50  41  71 SW8       30.20S
BROOMFIELD     CLEAR     54  39  58 W6        30.17F
FORT COLLINS   CLEAR     54  43  66 CALM      30.16F
LONGMONT       CLEAR     52  43  71 W6        30.15F
$$

COZ041-046-047-076>085-087-088-140700-
...PIKES PEAK/PALMER DIVIDE AND SOUTHERN FOOTHILLS...

CITY           SKY/WX    TMP DP  RH WIND       PRES   REMARKS
COLO. SPRINGS  CLEAR     49  38  65 NW5       30.24S
A. F. ACADEMY  CLEAR     43  36  74 N8        30.25F
ELLICOTT       NOT AVBL
FALCON         CLEAR     44  37  77 W3        30.27F
FORT CARSON    CLEAR     49  38  65 NW9       30.21F
LIMON          CLEAR     44  42  93 CALM      30.20S
MONUMENT HILL  CLEAR     45  36  70 W10       30.26F
TRINIDAD       PTCLDY    60  41  49 W8        30.19R
$$

COZ042>045-048>051-090-091-140700-
...NORTHEAST COLORADO...

CITY           SKY/WX    TMP DP  RH WIND       PRES   REMARKS
GREELEY ARPT   CLEAR     46  37  71 NE5       30.14F
AKRON          CLEAR     52  48  86 S10       30.16F
BURLINGTON     CLEAR     49  47  93 S9        30.17F
WRAY           CLEAR     48  46  94 NE3       30.17R
STERLING       CLEAR     50  46  87 CALM      30.14S
HOLYOKE        CLEAR     46  43  87 CALM      30.18R
FORT MORGAN    CLEAR     51  46  82 SE5       30.15F
$$

COZ086-089-092>099-140700-
...SOUTHEAST COLORADO...

CITY           SKY/WX    TMP DP  RH WIND       PRES   REMARKS
PUEBLO         CLEAR     58  41  53 W3        30.16R
LA JUNTA       CLEAR     57  53  86 E9        30.10S
LAMAR          CLEAR     54  52  93 N8        30.11F
SPRINGFIELD      N/A     54  53  97 S9        30.15S
$$



USA.gov is the U.S. government's official web portal to all federal, state and local government web resources and services.